Hourly Data Report for August 20, 2019

QUALICUM BEACH AIRPORT
BRITISH COLUMBIA
Current Station Operator: ECCC - MSC

49°20'14.000" N
124°23'38.000" W
58.20 m
1026562
71766
VOQ

Download Data

Hourly Data (August 2019)
Hourly Data Report for August 20, 2019
TIME
LST
Temp Definition
°C
Dew Point Definition
°C
Rel Hum Definition
%
Precip. Amount Definition
mm

Wind Dir Definition
10's deg

Wind Spd Definition
km/h
Visibility Definition
km
Stn Press Definition
kPa
Hmdx Definition


Wind Chill Definition


Weather Definition


00:00 12.2 11.0 93 0.0   0   100.77     LegendNANA
01:00 11.9 10.9 93 0.0 27 1   100.77     LegendNANA
02:00 11.6 10.6 93 0.0 27 1   100.75     LegendNANA
03:00 10.7 9.8 94 0.0 26 1   100.73     LegendNANA
04:00 9.9 9.0 94 0.0 0 1   100.69     LegendNANA
05:00 9.6 8.7 94 0.0 0 1   100.66     LegendNANA
06:00 9.8 8.6 93 0.0 21 2   100.67     LegendNANA
07:00 13.7 11.4 86 0.0 15 2   100.67     LegendNANA
08:00 18.2 11.8 67 0.0 11 3   100.65     LegendNANA
09:00 19.2 13.0 67 0.0 10 10   100.60     LegendNANA
10:00 19.9 13.8 68 0.0 10 13   100.59     LegendNANA
11:00 20.3 13.4 65 0.0 11 12   100.55     LegendNANA
12:00 20.4 14.0 67 0.0 9 16   100.53     LegendNANA
13:00 20.9 13.5 63 0.0 8 10   100.50     LegendNANA
14:00 22.0 13.5 58 0.0 9 8   100.44 25   LegendNANA
15:00 22.7 13.7 57 0.0 6 5   100.42 26   LegendNANA
16:00 22.5 14.1 59 0.0 9 6   100.36 26   LegendNANA
17:00 23.1 14.2 57 0.0 8 4   100.36 27   LegendNANA
18:00 22.6 14.1 59 0.0 9 3   100.37 26   LegendNANA
19:00 22.0 13.0 57 0.0 29 8   100.44 25   LegendNANA
20:00 20.9 11.3 54 0.0 28 4   100.45     LegendNANA
21:00 20.6 11.3 55 0.0 15 17   100.47     LegendNANA
22:00 20.4 10.1 51 0.0 18 10   100.50     LegendNANA
23:00 18.6 12.4 67 0.0 27 2   100.51     LegendNANA

Notes on Data Quality.

Legend

  • E = Estimated
  • M = Missing
  • NA = Not Available*
  • [empty] = Indicates an unobserved value
Date modified: